Location: Newark
(35.6799°N, 139.7636°E)
Time: 20:55:08
(UTC+00:00)

Explorer 7 - Pass Details

Date: 15 December 2019
Orbit: 485 x 679 km, 50.3° (Epoch: 29 January)

Event Time Altitude Azimuth Distance (km) Brightness Sun altitude
Rises 03:50:59 0° 220° (SW) 2,863 11.5 28.4°
Reaches altitude 10° 03:53:14 10° 217° (SW) 1,990 11.1 28.3°
Maximum altitude 03:57:47 63° 137° (SE) 722 8.0 28.0°
Drops below altitude 10° 04:02:34 10° 56° (NE) 2,092 9.4 27.6°
Sets 04:04:59 0° 53° (NE) 3,021 10.1 27.4°
